Location: Finkenwalde
(53.3770°N, 14.6418°E)
Time: 03:43:36
(UTC+00:00)

CSL-04 Debris - Pass Details

Date: 05 February 2023
Orbit: 826 x 845 km, 98.8° (Epoch: 24 March)

Event Time Altitude Azimuth Distance (km) Brightness Sun altitude
Exits shadow 18:06:24 22° 143° (SE) 1,742 5.5 -20.2°
Maximum altitude 18:09:52 63° 68° (ENE) 927 4.1 -20.7°
Drops below altitude 10° 18:15:12 10° 349° (N) 2,444 6.7 -21.5°
Sets 18:17:35 0° 346° (NNW) 3,380 7.5 -21.9°
